Location: Hac?musa Deresi
(39.1694°N, 32.2508°E)
Time: 11:51:55
(UTC+00:00)

Cosmos 1975 Rocket - Pass Details

Date: 22 April 2026
Orbit: 596 x 626 km, 82.5° (Epoch: 21 May)

Event Time Altitude Azimuth Distance (km) Brightness Sun altitude
Rises 18:53:37 0° 359° (N) 2,908 7.1 -24.2°
Reaches altitude 10° 18:55:57 10° 5° (N) 1,994 6.1 -24.5°
Enters shadow 18:59:00 36° 37° (NE) 986 4.1 -24.9°
